Date String (YYYY-MM-DD hh:mm:ss) UTC,Instrument flags,absolute air pressure of the measurement (hPa),sample flow rate (lpm),inlet stack bypass flow (lpm),air temperature of the measurement (°C),ambient temperature measured by the external sensor (°C),aerosol sample conditioner tube jacket temperature (°C),OPC LED temperature (°C),internal box temperature (°C),relative humidity of the measurement (%),span deviation,mass concentration of particles derived from Lorenz-Mie calculation of OPC scattering (μg/m³),mass concentration of particles derived from Lorenz-Mie calculation of OPC scattering (μg/m³),mass concentration of particles derived from Lorenz-Mie calculation of OPC scattering (μg/m³)
DateTimeUTC,F1_M11,P_M11,Q1_M11,Q2_M11,T1_M11,T2_M11,T3_M11,T4_M11,T5_M11,U1_M11,ZSPAN_M11,X0_M11,X2_M11,X1_M11
2023-06-26 22:00:00,SystemResetWarning,0829.1,5.00,000.00,029.6,027.2,000.0,038.1,031.1,32.5,0002.4,0021.70,0008.03,0006.25
2023-06-26 22:01:00,SystemResetWarning,0829.1,5.00,000.00,029.6,027.5,000.0,038.1,031.1,33.5,0002.2,0022.63,0008.05,0006.25
2023-06-26 22:02:00,SystemResetWarning,0829.1,4.98,000.00,029.7,027.0,000.0,038.0,031.2,33.5,0001.9,0022.19,0008.08,0006.27
2023-06-26 22:03:00,SystemResetWarning,0829.1,5.00,000.00,029.7,025.3,000.0,038.0,031.1,32.6,0001.9,0022.59,0008.07,0006.27
2023-06-26 22:04:00,SystemResetWarning,0829.1,5.01,000.00,029.6,024.6,000.0,037.9,031.1,33.2,0002.1,0024.14,0008.09,0006.27
2023-06-26 22:05:00,SystemResetWarning,0829.1,5.01,000.00,029.6,024.7,000.0,037.9,030.7,32.8,0002.1,0025.05,0008.10,0006.29
2023-06-26 22:06:00,SystemResetWarning,0829.1,4.99,000.00,029.4,025.1,000.0,037.9,030.5,32.7,0002.1,0025.87,0008.07,0006.29
2023-06-26 22:07:00,SystemResetWarning,0829.1,5.00,000.00,029.4,025.7,000.0,037.9,030.6,31.9,0002.2,0026.30,0008.05,0006.28
2023-06-26 22:08:00,SystemResetWarning,0829.1,4.99,000.00,029.4,026.2,000.0,037.9,030.8,31.5,0002.5,0027.04,0008.05,0006.28
2023-06-26 22:09:00,SystemResetWarning,0829.1,5.00,000.00,029.4,026.7,000.0,037.9,030.9,31.9,0002.5,0026.56,0008.02,0006.27
2023-06-26 22:10:00,SystemResetWarning,0829.1,5.00,000.00,029.4,027.1,000.0,037.9,031.0,32.2,0000.1,0026.53,0008.05,0006.27
2023-06-26 22:11:00,SystemResetWarning,0829.1,4.98,000.00,029.5,027.4,000.0,037.9,031.0,33.9,0002.2,0026.72,0008.08,0006.24
2023-06-26 22:12:00,SystemResetWarning,0829.1,5.00,000.00,029.5,027.7,000.0,037.9,031.1,34.1,0000.6,0025.72,0008.06,0006.21
2023-06-26 22:13:00,SystemResetWarning,0829.1,4.99,000.00,029.6,026.5,000.0,037.9,031.2,33.9,0000.0,0023.84,0008.03,0006.18
2023-06-26 22:14:00,SystemResetWarning,0829.0,5.00,000.00,029.5,024.9,000.0,037.8,031.1,32.5,0000.0,0023.55,0008.08,0006.15
2023-06-26 22:15:00,SystemResetWarning,0829.0,5.01,000.00,029.5,024.6,000.0,037.8,031.0,32.4,0000.0,0022.96,0008.02,0006.11
2023-06-26 22:16:00,SystemResetWarning,0828.9,5.01,000.00,029.4,024.9,000.0,037.8,030.6,32.5,0000.0,0022.67,0007.97,0006.06
2023-06-26 22:17:00,SystemResetWarning,0828.9,5.00,000.00,029.3,025.4,000.0,037.8,030.6,33.1,0000.0,0022.72,0007.94,0006.03
2023-06-26 22:18:00,SystemResetWarning,0828.9,4.99,000.00,029.3,025.9,000.0,037.8,030.7,32.4,0000.0,0022.65,0007.92,0005.99
2023-06-26 22:19:00,SystemResetWarning,0828.9,5.01,000.00,029.3,026.4,000.0,037.8,030.8,32.8,0000.0,0022.84,0007.88,0005.97
2023-06-26 22:20:00,SystemResetWarning,0828.9,4.99,000.00,029.3,026.8,000.0,037.8,030.9,32.4,0000.0,0023.59,0007.84,0005.93
2023-06-26 22:21:00,SystemResetWarning,0829.0,4.99,000.00,029.4,027.2,000.0,037.8,031.0,30.8,0000.0,0023.40,0007.77,0005.91
2023-06-26 22:22:00,SystemResetWarning,0828.9,5.01,000.00,029.4,027.5,000.0,037.8,031.0,31.3,0000.0,0022.72,0007.71,0005.90
2023-06-26 22:23:00,SystemResetWarning,0829.0,5.01,000.00,029.5,027.5,000.0,037.8,031.1,30.8,0000.4,0022.72,0007.66,0005.89
2023-06-26 22:24:00,SystemResetWarning,0829.0,4.99,000.00,029.5,025.9,000.0,037.8,031.0,31.0,0000.8,0022.79,0007.60,0005.88
2023-06-26 22:25:00,SystemResetWarning,0828.9,5.00,000.00,029.4,024.7,000.0,037.7,030.9,32.2,0000.7,0022.35,0007.50,0005.87
2023-06-26 22:26:00,SystemResetWarning,0828.9,5.01,000.00,029.4,024.6,000.0,037.7,030.8,31.9,0000.0,0022.58,0007.49,0005.88
2023-06-26 22:27:00,SystemResetWarning,0829.0,5.01,000.00,029.3,025.0,000.0,037.7,030.5,31.3,0000.0,0022.13,0007.47,0005.87
2023-06-26 22:28:00,SystemResetWarning,0829.0,5.00,000.00,029.2,025.5,000.0,037.7,030.5,30.9,0000.0,0021.23,0007.46,0005.86
2023-06-26 22:29:00,SystemResetWarning,0829.0,5.00,000.00,029.2,026.0,000.0,037.7,030.6,30.7,0000.0,0022.33,0007.46,0005.85
2023-06-26 22:30:00,SystemResetWarning,0829.0,5.00,000.00,029.2,026.5,000.0,037.7,030.7,31.4,0000.0,0022.19,0007.47,0005.84
2023-06-26 22:31:00,SystemResetWarning,0829.0,5.01,000.00,029.3,026.9,000.0,037.7,030.8,31.5,0000.0,0021.20,0007.49,0005.83
2023-06-26 22:32:00,SystemResetWarning,0829.0,4.98,000.00,029.3,027.3,000.0,037.7,030.9,30.9,0000.0,0021.13,0007.54,0005.81
2023-06-26 22:33:00,SystemResetWarning,0829.0,4.99,000.00,029.3,027.6,000.0,037.8,031.0,32.0,0000.0,0021.31,0007.62,0005.81
2023-06-26 22:34:00,SystemResetWarning,0829.0,5.00,000.00,029.4,027.7,000.0,037.8,031.1,32.4,0000.0,0022.03,0007.68,0005.81
2023-06-26 22:35:00,SystemResetWarning,0828.9,4.99,000.00,029.4,026.4,000.0,037.7,031.1,31.1,0000.0,0023.04,0007.69,0005.80
2023-06-26 22:36:00,SystemResetWarning,0828.8,5.02,000.00,029.4,024.8,000.0,037.7,031.0,30.5,0000.0,0023.59,0007.75,0005.80
2023-06-26 22:37:00,SystemResetWarning,0828.8,5.00,000.00,029.4,024.6,000.0,037.6,030.9,29.8,0002.4,0023.20,0007.78,0005.80
2023-06-26 22:38:00,SystemResetWarning,0828.8,5.00,000.00,029.3,024.9,000.0,037.6,030.6,30.1,0002.5,0023.51,0007.79,0005.79
2023-06-26 22:39:00,SystemResetWarning,0828.7,5.01,000.00,029.2,025.4,000.0,037.7,030.6,30.4,0002.6,0024.70,0007.79,0005.79
2023-06-26 22:40:00,SystemResetWarning,0828.7,5.00,000.00,029.2,026.0,000.0,037.7,030.7,30.8,0003.0,0025.37,0007.79,0005.80
2023-06-26 22:41:00,SystemResetWarning,0828.7,5.00,000.00,029.2,026.5,000.0,037.7,030.8,30.1,0002.9,0024.47,0007.77,0005.80
2023-06-26 22:42:00,SystemResetWarning,0828.7,5.00,000.00,029.2,026.9,000.0,037.7,030.8,31.0,0002.8,0025.46,0007.76,0005.81
2023-06-26 22:43:00,SystemResetWarning,0828.7,4.99,000.00,029.3,027.3,000.0,037.7,030.9,30.3,0002.4,0026.63,0007.76,0005.80
2023-06-26 22:44:00,SystemResetWarning,0828.7,4.99,000.00,029.3,027.6,000.0,037.7,031.0,30.6,0002.0,0027.15,0007.68,0005.79
2023-06-26 22:45:00,SystemResetWarning,0828.7,5.00,000.00,029.4,027.8,000.0,037.8,031.1,31.1,0001.6,0028.28,0007.60,0005.77
2023-06-26 22:46:00,SystemResetWarning,0828.7,5.00,000.00,029.4,026.8,000.0,037.7,031.1,31.5,0001.3,0027.27,0007.54,0005.74
2023-06-26 22:47:00,SystemResetWarning,0828.6,5.00,000.00,029.4,025.0,000.0,037.7,031.0,30.7,0001.0,0028.05,0007.57,0005.73
2023-06-26 22:48:00,SystemResetWarning,0828.6,5.01,000.00,029.3,024.6,000.0,037.6,030.9,31.0,0000.3,0028.99,0007.56,0005.73
2023-06-26 22:49:00,SystemResetWarning,0828.6,5.01,000.00,029.2,024.9,000.0,037.6,030.6,31.2,0000.1,0030.12,0007.60,0005.74
2023-06-26 22:50:00,SystemResetWarning,0828.6,5.00,000.00,029.2,025.3,000.0,037.6,030.5,31.0,-000.0,0030.06,0007.67,0005.73
2023-06-26 22:51:00,SystemResetWarning,0828.6,5.00,000.00,029.2,025.9,000.0,037.6,030.6,31.0,0000.1,0029.31,0007.68,0005.72
2023-06-26 22:52:00,SystemResetWarning,0828.6,5.00,000.00,029.2,026.4,000.0,037.7,030.7,30.9,0000.4,0030.29,0007.73,0005.71
2023-06-26 22:53:00,SystemResetWarning,0828.6,5.00,000.00,029.2,026.8,000.0,037.7,030.8,31.1,0000.8,0030.01,0007.77,0005.69
2023-06-26 22:54:00,SystemResetWarning,0828.6,5.00,000.00,029.3,027.2,000.0,037.7,031.0,31.5,0000.9,0030.10,0007.69,0005.67
2023-06-26 22:55:00,SystemResetWarning,0828.6,5.00,000.00,029.3,027.5,000.0,037.7,031.0,31.3,0001.4,0029.88,0007.72,0005.67
2023-06-26 22:56:00,SystemResetWarning,0828.6,5.00,000.00,029.3,027.6,000.0,037.7,031.1,31.4,0001.4,0028.48,0007.68,0005.67
2023-06-26 22:57:00,SystemResetWarning,0828.6,4.98,000.00,029.4,026.1,000.0,037.7,031.0,31.2,0001.2,0028.39,0007.70,0005.67
2023-06-26 22:58:00,SystemResetWarning,0828.6,5.02,000.00,029.3,024.8,000.0,037.6,030.9,30.8,0001.3,0027.97,0007.62,0005.68
2023-06-26 22:59:00,SystemResetWarning,0828.6,5.00,000.00,029.3,024.7,000.0,037.6,030.7,30.4,0000.0,0026.95,0007.57,0005.69
